Weather History for Sioux Falls, SD

Change the Weather History Date:

Tuesday, August 27, 2013

  Actual Average Record
Temperature  
Mean Temperature 84 °F 69 °F  
Max Temperature 93 °F 80 °F 101 °F (1973)
Min Temperature 74 °F 57 °F 35 °F (1896)
Degree Days  
Heating Degree Days 0 1  
Month to date heating degree days 15 14  
Since 1 June heating degree days 103 73  
Since 1 July heating degree days 34 22  
Cooling Degree Days 19 5  
Month to date cooling degree days 172 180  
Year to date cooling degree days 599 607  
Since 1 June cooling degree days 557 571  
Growing Degree Days 33 (Base 50)    
Moisture  
Dew Point 71 °F    
Average Humidity 66    
Maximum Humidity 90    
Minimum Humidity 44    
Precipitation  
Precipitation 0.00 in 0.10 in 1.33 in (1952)
Month to date precipitation 2.64 2.65  
Year to date precipitation 19.83 18.99  
Snow  
Snow 0.00 in 0.00 in 0.00 in ()
Month to date snowfall 0.0 0.0  
Since 1 June snowfall 0.0 0.0  
Since 1 July snowfall 0.0 0.0  
Snow Depth 0.00 in    
Sea Level Pressure  
Sea Level Pressure 29.83 in    
Wind  
Wind Speed 5 mph (SSW)    
Max Wind Speed 14 mph    
Max Gust Speed 21 mph    
Visibility 10 miles    
Events Thunderstorm    
T = Trace of Precipitation, MM = Missing Value Source: NWS Daily Summary

Daily Weather History Graph

Daily Weather History Graph

Search for Another Location

Airport:

Trip Planner

Search our weather history database for the weather conditions in past years. The results will help you decide how hot, cold, wet, or windy it might be!

Date:

Astronomy

Aug. 27, 2013 Rise Set
Actual Time 6:45 AM CDT 8:10 PM CDT
Civil Twilight 6:15 AM CDT 8:40 PM CDT
Nautical Twilight 5:39 AM CDT 9:16 PM CDT
Astronomical Twilight 5:01 AM CDT 9:54 PM CDT
Moon 11:50 PM CDT (8/27) 1:58 PM CDT (8/27)
Length of Visible Light 14h 24m
Length of Day
13h 25m
Waning Gibbous, 57% of the Moon is Illuminated
Aug 27
Waning Gibbous
Aug 28
Last Quarter
Sep 5
New
Sep 12
First Quarter
Sep 19
Full

Hourly Weather History & Observations

Time (CDT) Temp. Heat Index Dew Point Humidity Pressure Visibility Wind Dir Wind Speed Gust Speed Precip Events Conditions
12:56 AM 80.1 °F 82.9 °F 69.1 °F 69% 29.82 in 10.0 mi SSW 12.7 mph - N/A   Clear
1:38 AM 80.6 °F 83.9 °F 69.8 °F 70% 29.85 in 10.0 mi SSW 11.5 mph - N/A Thunderstorm Clear
1:53 AM 80.6 °F 83.2 °F 68.0 °F 65% 29.85 in 10.0 mi SSW 12.7 mph - N/A   Clear
1:56 AM 80.1 °F 82.7 °F 68.0 °F 67% 29.81 in 10.0 mi SSW 10.4 mph - N/A   Clear
2:06 AM 78.8 °F - 68.0 °F 69% 29.84 in 10.0 mi South 12.7 mph - N/A Thunderstorm Clear
2:21 AM 78.8 °F - 68.0 °F 69% 29.84 in 10.0 mi SSW 10.4 mph - N/A   Clear
2:56 AM 78.1 °F - 68.0 °F 71% 29.80 in 10.0 mi SSW 10.4 mph - N/A   Clear
3:56 AM 78.1 °F - 66.9 °F 68% 29.79 in 10.0 mi SSW 11.5 mph - N/A   Clear
4:56 AM 75.0 °F - 66.0 °F 73% 29.79 in 10.0 mi SSW 8.1 mph - N/A   Clear
5:56 AM 75.0 °F - 66.0 °F 73% 29.79 in 10.0 mi SSW 9.2 mph - N/A   Clear
6:56 AM 73.9 °F - 66.0 °F 76% 29.80 in 10.0 mi SSW 6.9 mph - N/A   Clear
7:56 AM 75.9 °F - 66.0 °F 71% 29.82 in 10.0 mi SW 6.9 mph - N/A   Clear
8:56 AM 79.0 °F - 66.0 °F 64% 29.82 in 10.0 mi Variable 6.9 mph - N/A   Clear
9:56 AM 82.0 °F 84.5 °F 66.9 °F 60% 29.83 in 10.0 mi Variable 5.8 mph - N/A   Clear
10:56 AM 84.9 °F 89.4 °F 70.0 °F 61% 29.84 in 10.0 mi WNW 3.5 mph - N/A   Clear
11:56 AM 87.1 °F 92.0 °F 70.0 °F 57% 29.84 in 10.0 mi Variable 3.5 mph - N/A   Partly Cloudy
12:56 PM 90.0 °F 96.4 °F 71.1 °F 54% 29.83 in 10.0 mi Calm Calm - N/A   Partly Cloudy
1:56 PM 91.9 °F 100.7 °F 73.0 °F 54% 29.83 in 10.0 mi Calm Calm - N/A   Partly Cloudy
2:56 PM 91.9 °F 101.3 °F 73.9 °F 55% 29.83 in 10.0 mi South 6.9 mph - N/A   Partly Cloudy
3:56 PM 91.0 °F 101.6 °F 75.0 °F 59% 29.83 in 10.0 mi SSW 6.9 mph - N/A   Partly Cloudy
4:56 PM 91.9 °F 103.2 °F 75.0 °F 58% 29.83 in 10.0 mi Calm Calm - N/A   Partly Cloudy
5:56 PM 91.0 °F 101.6 °F 75.0 °F 59% 29.83 in 10.0 mi SW 3.5 mph - N/A   Partly Cloudy
6:56 PM 90.0 °F 101.3 °F 75.9 °F 63% 29.84 in 10.0 mi SSW 3.5 mph - N/A   Partly Cloudy
7:56 PM 86.0 °F 93.8 °F 73.9 °F 67% 29.84 in 10.0 mi SSW 4.6 mph - N/A   Partly Cloudy
8:56 PM 84.0 °F 91.2 °F 73.9 °F 72% 29.86 in 10.0 mi Calm Calm - N/A   Partly Cloudy
9:56 PM 79.0 °F - 75.0 °F 88% 29.88 in 10.0 mi Calm Calm - N/A   Clear
10:56 PM 81.0 °F 86.7 °F 75.0 °F 82% 29.88 in 10.0 mi ENE 3.5 mph - N/A   Partly Cloudy
11:56 PM 78.1 °F - 75.0 °F 90% 29.89 in 10.0 mi NNE 5.8 mph - N/A   Scattered Clouds